Regional Weather Roundup
Issued by NWS

Home | Current Version | Previous Version | Graphics & Text | Print | Product List | Glossary On
Versions: 1 2 3 4 5 6 7 8 9 10 11 12 13 14 15 16 17 18 19 20 21 22 23 24 25 26 27 28 29 30 31 32 33 34 35 36 37 38 39 40 41 42 43 44 45 46 47 48 49 50
000
ASUS44 KMEG 131310
RWRTN
TENNESSEE HOURLY STATE WEATHER ROUNDUP
NATIONAL WEATHER SERVICE MEMPHIS TN
700 AM CST SAT FEB 13 2016

TNZ002-004-019-021-049-052-054-088>092-131400-
WEST TENNESSEE

CITY           SKY/WX    TMP DP  RH WIND       PRES   REMARKS
MEMPHIS INTL   CLOUDY    28  10  46 NE12      30.55R WCI  18
NWS MEMPHIS      N/A     26 N/A N/A MISG        N/A
JACKSON        CLEAR     22  10  60 N13       30.57R WCI  10
DYERSBURG      CLOUDY    23   9  54 N12       30.60R WCI  12
UNION CITY     CLOUDY    18  10  73 N14       30.58R WCI   4
PARIS          CLEAR     16   5  62 N9        30.57R WCI   4
LEXINGTON      CLEAR     19  10  68 N6        30.53R WCI  11
$$

TNZ008-025-027-028-033-062-065-066-131400-
NORTH MIDDLE TENNESSEE

CITY           SKY/WX    TMP DP  RH WIND       PRES   REMARKS
NASHVILLE      PTCLDY    20   4  50 N9        30.53R WCI   9
CLARKSVILLE    CLEAR     17   6  62 N13       30.57R WCI   4
SMYRNA         CLEAR     20   6  54 N16       30.53R WCI   6
COOKEVILLE     CLEAR     19  10  68 VRB7      30.44R WCI  10
CROSSVILLE     CLEAR     17   9  70 NW10      30.36R WCI   5
$$

TNZ061-075-076-078-094-096-097-131400-
SOUTH MIDDLE TENNESSEE

CITY           SKY/WX    TMP DP  RH WIND       PRES   REMARKS
FAYETTEVILLE   MOCLDY    23  16  74 N6        30.45R WCI  16
TULLAHOMA      CLEAR     18  10  73 N10       30.44R WCI   6
WINCHESTER     CLEAR     19  10  68 N12       30.45R WCI   7
MCMINNVILLE    CLEAR     19  12  73 N8        30.45R WCI   9
COLUMBIA       CLEAR     21  16  79 N6        30.49R WCI  14
SHELBYVILLE    PTCLDY    21  16  79 N7        30.49R WCI  13
$$

TNZ017-018-042-046-047-131400-
NORTHEAST TENNESSEE

CITY           SKY/WX    TMP DP  RH WIND       PRES   REMARKS
TRI CITIES     CLOUDY    20   7  57 NW8       30.32R WCI  10
$$

TNZ012-013-036-069-073-074-131400-
CENTRAL EAST TENNESSEE

CITY           SKY/WX    TMP DP  RH WIND       PRES   REMARKS
KNOXVILLE      MOCLDY    24  11  57 NW9       30.40R WCI  14
OAK RIDGE      CLOUDY    23   9  55 N8        30.43R WCI  14
GATLINBURG     CLOUDY    19  10  68 CALM      30.39R
MORRISTOWN     CLOUDY    21  10  63 N12       30.36R WCI   9
$$

TNZ083-085-099-131400-
SOUTHEAST TENNESSEE

CITY           SKY/WX    TMP DP  RH WIND       PRES   REMARKS
CHATTANOOGA    PTCLDY    25  11  55 N15G23    30.43R WCI  13
$$

SKY/WX REPORTED AS FAIR MEANS FEW OR NO CLOUDS BELOW
12 THOUSAND FEET.




USA.gov is the U.S. government's official web portal to all federal, state and local government web resources and services.